[[{"header":{"parameterUnit":"m.s-1","parameterCategory":2,"la1":30.2991,"la2":30.254,"lo1":-89.0895,"lo2":-89.0444,"dy":0.0017,"dx":0.0017,"nx":28,"ny":28,"refTime":"2023-11-12T03:00:00:Z","depth":"0","parameterNumber":2,"parameterNumberName":"U-component_of_CURRENTS"},"data":[0,0,0,0,0,0,0,0,0,0,0,0,0,0,0,0,0,0,0,0,0,0,0,0,0,0,0,0,0,0,0,0,0,0,0,0,0,0,0,0,0,0,0,0,0,0,0,0,0,0,0,0,0,0,0,0,0,0,0.2629,0.2629,0,0.2628,0.2628,0.2628,0.2617,0.2617,0.2617,0.2617,0.26,0.2599,0.2599,0,0,0,0,0,0,0,0,0,0,0,0,0,0.2618,0.2618,0.2629,0.2629,0.2629,0.2628,0.2628,0.2628,0.2617,0.2617,0.2617,0.2617,0.26,0.26,0.2599,0,0,0,0,0,0,0,0,0,0,0,0,0,0.262,0.2618,0.2628,0.2624,0.2624,0.2628,0.2628,0.2628,0.2617,0.2617,0.2617,0.2616,0.26,0.26,0.2599,0.2602,0,0,0.2598,0.2598,0,0,0,0,0,0,0,0,0.262,0.262,0.2625,0.2624,0.2624,0.2624,0.2618,0.2619,0.2617,0.2618,0.2617,0.2616,0.2607,0.2606,0.2605,0.2601,0.26,0.2598,0.2598,0.2597,0.2597,0,0,0,0,0,0,0,0.2619,0.262,0.2627,0.2625,0.2625,0.2622,0.2622,0.2618,0.2613,0.2618,0.2618,0.262,0.2607,0.2606,0.2605,0.26,0.2598,0.2597,0.2597,0.2597,0.2628,0.2629,0,0,0,0,0,0,0.2622,0.262,0.2627,0.2627,0.2623,0.2622,0.2622,0.2623,0.2613,0.2612,0.262,0.2619,0.2606,0.2605,0.2604,0.2631,0.2597,0.2597,0.2597,0.2627,0.2629,0.263,0,0,0,0,0,0,0.2622,0.2623,0.2627,0.2625,0.2625,0.2623,0.2624,0.2623,0.2628,0.2615,0.2613,0.2627,0.2606,0.2605,0.2612,0.2629,0.2597,0.2596,0.2626,0.2628,0.2629,0.267,0,0,0,0,0,0,0.2622,0.2623,0.2625,0.2625,0.2625,0.264,0.2624,0.2623,0.263,0.2629,0.262,0.2618,0.2606,0.2613,0.2611,0.2628,0.2596,0.2625,0.2627,0.2629,0.2667,0.2673,0.2677,0,0,0,0,0,0.2621,0.2626,0.2625,0.2626,0.2628,0.2641,0.2641,0.2637,0.2631,0.2639,0.2633,0.2618,0.2625,0.2613,0.2611,0.2629,0.2624,0.2626,0.2629,0.2665,0.2671,0.2677,0,0,0,0,0,0,0.2618,0.2625,0.2624,0.2629,0.2639,0.2639,0.2645,0.2644,0.2645,0.2644,0.2629,0.2627,0.2642,0.2631,0.2619,0.2645,0.2623,0.2626,0.2652,0.2658,0.2663,0.2675,0.2596,0,0,0,0,0,0.2619,0.2627,0.2634,0.2639,0.2646,0.2647,0.2652,0.2653,0.2654,0.2655,0.2646,0.2644,0.2651,0.2651,0.2652,0.2662,0.2673,0.2675,0.268,0.2684,0.2695,0.2731,0.274,0.2638,0.2638,0.2638,0,0,0.2618,0.2624,0.2627,0.2639,0.2645,0.2657,0.2649,0.2663,0.2673,0.2653,0.2662,0.2662,0.2659,0.2674,0.268,0.2666,0.272,0.2687,0.2691,0.2699,0.2734,0.2744,0.2753,0.264,0.2639,0.2639,0,0,0.2622,0.2629,0.2637,0.265,0.2665,0.267,0.2677,0.2684,0.269,0.27,0.2694,0.2709,0.2704,0.2714,0.2717,0.2752,0.2748,0.275,0.2782,0.2817,0.2826,0.2834,0.2864,0.2875,0.2749,0.275,0.275,0,0.262,0.2629,0.2642,0.2656,0.2666,0.2677,0.269,0.2702,0.2709,0.2721,0.2708,0.2731,0.2726,0.276,0.2772,0.2765,0.2782,0.2756,0.2824,0.2832,0.284,0.2869,0.288,0.2752,0.2752,0.2751,0.2751,0,0.2631,0.264,0.2649,0.2669,0.2686,0.27,0.2721,0.2737,0.2742,0.2752,0.2784,0.2787,0.2801,0.2805,0.2798,0.285,0.2845,0.2829,0.2808,0.2853,0.2881,0.2891,0.2755,0.2754,0.2754,0.2753,0,0,0.2612,0.2648,0.2649,0.266,0.2693,0.2705,0.2738,0.2768,0.2796,0.2805,0.2842,0.2858,0.2866,0.2871,0.2872,0.2902,0.2967,0.289,0.289,0.292,0.3048,0.3027,0.3036,0.2963,0.2965,0.2967,0.3048,0,0.2612,0.2637,0.2657,0.2678,0.2694,0.2723,0.2754,0.2787,0.2818,0.2858,0.2879,0.2913,0.289,0.2909,0.2936,0.2967,0.2997,0.2947,0.3001,0.3003,0.2979,0.3048,0.2949,0.3012,0.3058,0.306,0.3061,0,0.2605,0.2627,0.2649,0.2688,0.2698,0.2715,0.2773,0.2804,0.2872,0.2902,0.2945,0.2965,0.3021,0.2992,0.3065,0.3035,0.3047,0.3062,0.3065,0.304,0.3002,0.2975,0.3029,0.2978,0.3077,0.3076,0.3075,0,0.2576,0.2614,0.2629,0.2642,0.2694,0.2712,0.2743,0.2812,0.2857,0.294,0.2988,0.3041,0.3087,0.3112,0.3143,0.3112,0.3223,0.318,0.3171,0.3169,0.3093,0.3081,0.3103,0.3231,0.3231,0.323,0.323,0,0.2559,0.2567,0.2617,0.2623,0.2648,0.2698,0.2743,0.2791,0.2884,0.2935,0.3008,0.3065,0.3123,0.3183,0.3184,0.3225,0.3256,0.32,0.3199,0.3104,0.3093,0.305,0.3014,0.3233,0.3233,0.3232,0.3232,0,0.2513,0.2545,0.256,0.2614,0.2629,0.2647,0.2728,0.2771,0.2874,0.2951,0.2984,0.3112,0.3197,0.3249,0.3314,0.3289,0.3235,0.3317,0.3205,0.3188,0.3106,0.3075,0.2979,0.2874,0.332,0.332,0.332,0,0.2488,0.2495,0.2535,0.2548,0.2566,0.2609,0.2641,0.2743,0.2801,0.2961,0.2995,0.3132,0.3201,0.3321,0.3325,0.3355,0.3242,0.326,0.3178,0.3114,0.3079,0.2945,0.2852,0.3095,0.3094,0.3092,0.3091,0,0.2443,0.2456,0.2473,0.2495,0.2518,0.2547,0.2607,0.265,0.277,0.2866,0.2982,0.3063,0.3204,0.3214,0.3282,0.3274,0.3112,0.3231,0.3194,0.294,0.2766,0.2659,0.3031,0.3078,0.3079,0.308,0.3081,0.3082,0.2403,0.2399,0.2421,0.2433,0.2456,0.2467,0.2463,0.255,0.2626,0.2722,0.2872,0.2961,0.3076,0.3173,0.3148,0.3087,0.3034,0.2993,0.2974,0.2855,0.2706,0.3056,0.308,0.3081,0.3082,0.3083,0.3084,0,0.2345,0.2349,0.2362,0.2357,0.2342,0.2384,0.2421,0.2408,0.2445,0.2579,0.2675,0.2826,0.2871,0.294,0.297,0.2864,0.2693,0.2778,0.257,0.2498,0.2854,0.2799,0.2726,0.2726,0.2726,0.2726,0.2726,0.2726,0.2316,0.2294,0.2294,0.2237,0.2235,0.2178,0.2172,0.2179,0.2246,0.2326,0.2419,0.2545,0.2776,0.2871,0.2818,0.273,0.2496,0.2379,0.2346,0.2629,0.2646,0.2663,0.2605,0.2493,0.2492,0.1878,0.1873,0.187]},{"header":{"parameterUnit":"m.s-1","parameterCategory":2,"la1":30.2991,"la2":30.254,"lo1":-89.0895,"lo2":-89.0444,"dy":0.0017,"dx":0.0017,"nx":28,"ny":28,"refTime":"2023-11-12T03:00:00:Z","depth":"0","parameterNumber":3,"parameterNumberName":"V-component_of_CURRENTS"},"data":[0,0,0,0,0,0,0,0,0,0,0,0,0,0,0,0,0,0,0,0,0,0,0,0,0,0,0,0,0,0,0,0,0,0,0,0,0,0,0,0,0,0,0,0,0,0,0,0,0,0,0,0,0,0,0,0,0,0,-0.0032,-0.0033,0,-0.009,-0.009,-0.0091,-0.0132,-0.0132,-0.0132,-0.0132,-0.0202,-0.0204,-0.0206,0,0,0,0,0,0,0,0,0,0,0,0,0,0.0002,0.0002,-0.0032,-0.0033,-0.0033,-0.009,-0.009,-0.0091,-0.0132,-0.0132,-0.0132,-0.0132,-0.0202,-0.0204,-0.0206,0,0,0,0,0,0,0,0,0,0,0,0,0,-0.0031,0.0001,-0.0032,-0.0059,-0.0062,-0.0089,-0.0091,-0.0092,-0.0132,-0.0132,-0.0132,-0.0132,-0.0201,-0.0204,-0.0206,-0.0217,0,0,-0.0214,-0.0215,0,0,0,0,0,0,0,0,-0.003,-0.0033,-0.0054,-0.0057,-0.006,-0.0102,-0.0104,-0.0134,-0.0132,-0.0107,-0.0132,-0.0132,-0.0169,-0.0174,-0.0187,-0.0221,-0.0224,-0.0214,-0.0216,-0.0217,-0.0218,0,0,0,0,0,0,0,-0.0027,-0.0031,-0.0057,-0.0055,-0.0058,-0.0082,-0.0087,-0.011,-0.0137,-0.0109,-0.0112,-0.0115,-0.0171,-0.0184,-0.0189,-0.0225,-0.0214,-0.0217,-0.0218,-0.0219,-0.0266,-0.0265,0,0,0,0,0,0,-0.0014,-0.0028,-0.0055,-0.0058,-0.0043,-0.0082,-0.0088,-0.009,-0.0137,-0.0144,-0.0115,-0.0117,-0.018,-0.0186,-0.0191,-0.0192,-0.0217,-0.0219,-0.0221,-0.0266,-0.0266,-0.0265,0,0,0,0,0,0,-0.0013,-0.0016,-0.0052,-0.0043,-0.0049,-0.0082,-0.0085,-0.0091,-0.01,-0.0141,-0.0148,-0.0117,-0.018,-0.0188,-0.0205,-0.0196,-0.0221,-0.0223,-0.0266,-0.0266,-0.0265,-0.0204,0,0,0,0,0,0,-0.0012,-0.0015,-0.0013,-0.0042,-0.0049,-0.0061,-0.0084,-0.0092,-0.0101,-0.0104,-0.0145,-0.0152,-0.0181,-0.0201,-0.0208,-0.02,-0.0225,-0.0267,-0.0266,-0.0266,-0.0206,-0.0201,-0.0197,0,0,0,0,0,-0.001,-0.0002,-0.0012,-0.0016,-0.0045,-0.006,-0.0066,-0.0091,-0.0101,-0.0101,-0.0128,-0.0151,-0.0202,-0.0203,-0.0211,-0.0203,-0.0267,-0.0266,-0.0266,-0.0208,-0.0202,-0.0197,0,0,0,0,0,0,0.0014,-0.0006,-0.0018,-0.0016,-0.0034,-0.0066,-0.0067,-0.0084,-0.0106,-0.0107,-0.0147,-0.0156,-0.0169,-0.0194,-0.0193,-0.0215,-0.0238,-0.0239,-0.0192,-0.0187,-0.0182,-0.0164,-0.0227,0,0,0,0,0,0.0021,0.0022,-0.0002,-0.0001,-0.0006,-0.0035,-0.0044,-0.0059,-0.0082,-0.0092,-0.0121,-0.015,-0.0173,-0.0185,-0.0211,-0.0221,-0.0247,-0.0222,-0.0217,-0.0213,-0.0204,-0.0235,-0.0232,-0.0263,-0.0263,-0.0263,0,0,0.003,0.002,0.002,0.0005,-0.0011,-0.0009,-0.0041,-0.0047,-0.0046,-0.0096,-0.0103,-0.0136,-0.0173,-0.0185,-0.0193,-0.0204,-0.0219,-0.0212,-0.0208,-0.0201,-0.0233,-0.023,-0.0228,-0.0262,-0.0263,-0.0263,0,0,0.0055,0.0042,0.0053,0.0044,0.0029,0.0013,0.0017,-0.0011,-0.0023,-0.0037,-0.007,-0.0092,-0.0131,-0.0153,-0.017,-0.0155,-0.0195,-0.0166,-0.0125,-0.0155,-0.0153,-0.0151,-0.0182,-0.0183,-0.0161,-0.0161,-0.0161,0,0.0068,0.0078,0.0054,0.0063,0.0064,0.003,0.0046,0.0027,-0.0002,-0.0006,-0.003,-0.0081,-0.0115,-0.0125,-0.0122,-0.0143,-0.0168,-0.0142,-0.0149,-0.0147,-0.0146,-0.0179,-0.0181,-0.0158,-0.0159,-0.0159,-0.0159,0,0.0101,0.0109,0.0117,0.0119,0.0116,0.0124,0.0101,0.0094,0.0073,0.0054,0.0034,-0.0018,-0.0044,-0.0063,-0.0089,-0.0096,-0.0118,-0.014,-0.0159,-0.0139,-0.0175,-0.0178,-0.0154,-0.0155,-0.0156,-0.0157,0,0,0.0137,0.014,0.0144,0.0158,0.0149,0.0154,0.0157,0.0153,0.0165,0.0119,0.0125,0.0072,0.0043,0.0023,-0.0018,-0.0047,-0.0068,-0.0085,-0.0088,-0.0109,-0.0135,-0.0137,-0.0142,-0.0092,-0.0092,-0.0092,-0.0163,0,0.0173,0.0207,0.0198,0.0234,0.0252,0.0228,0.0236,0.0226,0.021,0.0205,0.0148,0.0134,0.0076,0.0065,0.0028,-0.0039,-0.0074,-0.0047,-0.0157,-0.016,-0.0159,-0.0144,-0.0116,-0.0176,-0.0167,-0.0167,-0.0168,0,0.0214,0.0232,0.0275,0.0298,0.0304,0.0317,0.0335,0.0341,0.0321,0.0306,0.0277,0.0231,0.0186,0.013,0.0024,0.0044,-0.0037,-0.0099,-0.0104,-0.0127,-0.0167,-0.0195,-0.0183,-0.0321,-0.0174,-0.0173,-0.0173,0,0.0261,0.029,0.033,0.0337,0.0353,0.0368,0.0376,0.0372,0.0398,0.0375,0.0387,0.0313,0.0289,0.0177,0.0051,0.0036,-0.0068,-0.0109,-0.0191,-0.0193,-0.02,-0.0201,-0.0327,-0.0188,-0.0188,-0.0188,-0.0188,0,0.0308,0.0341,0.0354,0.0378,0.0431,0.0419,0.0475,0.0469,0.0484,0.0528,0.0448,0.0463,0.03,0.022,0.0085,-0.0051,-0.0046,-0.0177,-0.0207,-0.0178,-0.0177,-0.0323,-0.0416,-0.0191,-0.019,-0.019,-0.0189,0,0.0354,0.0363,0.0414,0.044,0.0457,0.0494,0.055,0.0589,0.0588,0.0643,0.0641,0.0582,0.0479,0.0312,0.0137,0.0009,-0.0218,-0.019,-0.0144,-0.0166,-0.0373,-0.0463,-0.0631,-0.0704,-0.0294,-0.0295,-0.0295,0,0.0381,0.0411,0.0466,0.0504,0.052,0.0576,0.062,0.0642,0.0697,0.0723,0.0761,0.0682,0.0654,0.0404,0.0161,-0.0071,-0.0228,-0.0214,-0.0242,-0.0373,-0.0497,-0.0564,-0.0618,-0.0236,-0.0236,-0.0236,-0.0235,0,0.0435,0.0453,0.0495,0.0571,0.0627,0.07,0.0766,0.0829,0.0862,0.0911,0.0962,0.0943,0.0716,0.0512,0.0191,0.0016,-0.0313,-0.0219,-0.0369,-0.0468,-0.0536,-0.0622,-0.0207,-0.0234,-0.0234,-0.0234,-0.0234,-0.0234,0.0478,0.0514,0.0569,0.0643,0.0715,0.081,0.0878,0.0963,0.1066,0.1149,0.112,0.1127,0.0822,0.0405,0.0151,-0.0288,-0.0319,-0.0423,-0.0525,-0.0582,-0.0644,-0.0221,-0.0271,-0.0271,-0.0271,-0.0272,-0.0272,0,0.0526,0.0566,0.0637,0.0727,0.081,0.084,0.0968,0.1045,0.1174,0.1263,0.1311,0.1176,0.0801,0.0389,-0.0187,-0.0516,-0.0654,-0.0713,-0.0809,-0.0853,-0.0483,-0.047,-0.0546,-0.0546,-0.0545,-0.0545,-0.0545,-0.0545,0.0553,0.0624,0.0656,0.0792,0.0857,0.0972,0.1048,0.1169,0.1267,0.1375,0.1397,0.1386,0.1083,0.0073,-0.0656,-0.0842,-0.1077,-0.1132,-0.1272,-0.1023,-0.1004,-0.0985,-0.0994,-0.1179,-0.118,-0.1578,-0.1582,-0.1585]}],[{"header":{"parameterUnit":"m.s-1","parameterCategory":2,"la1":30.2991,"la2":30.254,"lo1":-89.0895,"lo2":-89.0444,"dy":0.0017,"dx":0.0017,"nx":28,"ny":28,"refTime":"2023-11-12T03:00:00:Z","depth":"2","parameterNumber":2,"parameterNumberName":"U-component_of_CURRENTS"},"data":[0,0,0,0,0,0,0,0,0,0,0,0,0,0,0,0,0,0,0,0,0,0,0,0,0,0,0,0,0,0,0,0,0,0,0,0,0,0,0,0,0,0,0,0,0,0,0,0,0,0,0,0,0,0,0,0,0,0,0.2531,0.2532,0,0.2536,0.2536,0.2536,0.2533,0.2533,0.2533,0.2533,0.2529,0.2529,0.2529,0,0,0,0,0,0,0,0,0,0,0,0,0,0.2517,0.2518,0.2531,0.2532,0.2532,0.2536,0.2536,0.2536,0.2533,0.2533,0.2533,0.2533,0.2529,0.2529,0.2529,0,0,0,0,0,0,0,0,0,0,0,0,0,0.2522,0.2518,0.2531,0.2532,0.2532,0.2536,0.2536,0.2536,0.2533,0.2533,0.2533,0.2533,0.2529,0.2529,0.2529,0.2528,0,0,0.2528,0.2528,0,0,0,0,0,0,0,0,0.2522,0.2522,0.2532,0.2532,0.2532,0.2535,0.253,0.2534,0.2533,0.2532,0.2533,0.2533,0.2531,0.2531,0.253,0.2528,0.2528,0.2528,0.2528,0.2528,0.2528,0,0,0,0,0,0,0,0.2521,0.2522,0.2532,0.2532,0.2532,0.2531,0.2532,0.253,0.253,0.2532,0.2532,0.2534,0.2531,0.253,0.253,0.2528,0.2528,0.2528,0.2528,0.2528,0.2568,0.2569,0,0,0,0,0,0,0.2523,0.2522,0.2532,0.2532,0.2528,0.2532,0.2532,0.2533,0.253,0.253,0.2534,0.2534,0.253,0.253,0.253,0.2564,0.2528,0.2528,0.2528,0.2567,0.2568,0.2569,0,0,0,0,0,0,0.2523,0.2524,0.2532,0.2528,0.2529,0.2532,0.2533,0.2533,0.2543,0.2533,0.2532,0.2546,0.253,0.253,0.2542,0.2563,0.2528,0.2528,0.2565,0.2567,0.2569,0.2611,0,0,0,0,0,0,0.2523,0.2524,0.2528,0.2528,0.253,0.2546,0.2534,0.2534,0.2545,0.2545,0.2542,0.2541,0.253,0.2543,0.2542,0.2562,0.2527,0.2564,0.2566,0.2568,0.2609,0.2614,0.2619,0,0,0,0,0,0.2522,0.2528,0.2528,0.253,0.2534,0.2547,0.2548,0.2549,0.2546,0.2556,0.2555,0.2542,0.2556,0.2543,0.2542,0.2563,0.2563,0.2565,0.2568,0.2606,0.2613,0.2619,0,0,0,0,0,0,0.2522,0.2529,0.2529,0.2536,0.2547,0.2548,0.2557,0.2557,0.2564,0.2565,0.2553,0.2552,0.2573,0.2563,0.2549,0.2582,0.2559,0.2562,0.2588,0.2595,0.26,0.2611,0.2527,0,0,0,0,0,0.2525,0.2533,0.254,0.2547,0.2555,0.2558,0.2564,0.2567,0.2572,0.2575,0.2571,0.2572,0.2581,0.2584,0.2588,0.2602,0.261,0.2617,0.2622,0.2627,0.2636,0.267,0.2679,0.2578,0.2578,0.2578,0,0,0.2526,0.2532,0.2536,0.2549,0.2556,0.2569,0.2562,0.2579,0.2591,0.2573,0.2589,0.2591,0.2591,0.2609,0.2618,0.2604,0.2661,0.263,0.2634,0.2641,0.2674,0.2683,0.2692,0.258,0.2579,0.2579,0,0,0.2533,0.2541,0.255,0.2563,0.2581,0.2585,0.2594,0.2603,0.2612,0.2627,0.2623,0.2641,0.2642,0.2652,0.2656,0.2695,0.2691,0.2696,0.2729,0.2761,0.277,0.2778,0.2806,0.2815,0.2696,0.2696,0.2696,0,0.2534,0.2543,0.2556,0.2571,0.2582,0.2594,0.2609,0.2622,0.2634,0.2647,0.2638,0.2667,0.2665,0.2699,0.2714,0.2708,0.2724,0.2702,0.2769,0.2777,0.2784,0.281,0.2821,0.2698,0.2698,0.2698,0.2697,0,0.2546,0.2557,0.2567,0.2588,0.2605,0.2621,0.2642,0.2662,0.2671,0.2682,0.272,0.2724,0.2742,0.2748,0.2742,0.2795,0.279,0.2773,0.2751,0.2797,0.2822,0.2832,0.2702,0.2701,0.27,0.2699,0,0,0.2532,0.2568,0.257,0.2581,0.2615,0.2628,0.2662,0.2693,0.2724,0.2738,0.2776,0.2798,0.2808,0.2815,0.2817,0.2846,0.291,0.2835,0.2835,0.2862,0.2986,0.2955,0.2963,0.2906,0.2908,0.2909,0.2984,0,0.2535,0.2561,0.2579,0.2604,0.262,0.2649,0.268,0.2715,0.2749,0.2791,0.2814,0.2851,0.2832,0.2853,0.2879,0.2909,0.2938,0.2891,0.2939,0.2941,0.2907,0.2974,0.2722,0.2766,0.2994,0.2996,0.2997,0,0.2531,0.2553,0.2576,0.2615,0.2626,0.2645,0.2704,0.2736,0.2805,0.2837,0.2882,0.2903,0.2959,0.2932,0.3002,0.2975,0.2987,0.3001,0.3003,0.2967,0.2929,0.2757,0.2775,0.3013,0.3012,0.3011,0.301,0,0.2505,0.2544,0.2561,0.2574,0.2625,0.2646,0.2678,0.2748,0.2791,0.2876,0.2924,0.2977,0.3023,0.3047,0.3076,0.3049,0.315,0.311,0.3092,0.3089,0.2881,0.2858,0.3159,0.3159,0.3159,0.3158,0.3158,0,0.249,0.2501,0.2551,0.2559,0.2587,0.2637,0.2684,0.2732,0.2823,0.2873,0.2946,0.2999,0.3057,0.3113,0.3114,0.3146,0.318,0.3119,0.3116,0.289,0.2867,0.308,0.307,0.3161,0.3161,0.316,0.316,0,0.2448,0.2481,0.2498,0.2554,0.257,0.2592,0.2672,0.2715,0.2816,0.2891,0.2924,0.3044,0.3121,0.317,0.3231,0.3204,0.3228,0.3223,0.2959,0.2923,0.3133,0.3124,0.3214,0.3214,0.3214,0.3214,0.3213,0,0.2426,0.2434,0.2479,0.2492,0.2512,0.2559,0.2591,0.2691,0.2746,0.2898,0.2929,0.3056,0.3112,0.3216,0.3199,0.3217,0.3249,0.2988,0.289,0.3157,0.3144,0.3135,0.3127,0.2627,0.2622,0.2618,0.2615,0,0.2385,0.24,0.2418,0.2443,0.2469,0.2498,0.2558,0.2598,0.2714,0.2799,0.2901,0.2967,0.3076,0.2992,0.3041,0.3008,0.2966,0.2909,0.3256,0.2664,0.2612,0.2597,0.2606,0.2579,0.2583,0.2585,0.2587,0.2589,0.2349,0.2347,0.2371,0.2385,0.2409,0.242,0.2416,0.2493,0.2558,0.2625,0.2764,0.2773,0.2808,0.2765,0.2688,0.2632,0.2836,0.2683,0.2691,0.2704,0.2635,0.2587,0.2536,0.2539,0.2541,0.2544,0.2546,0,0.2294,0.23,0.2314,0.2311,0.2295,0.2341,0.2374,0.2344,0.2362,0.2442,0.2505,0.2334,0.2297,0.2321,0.2189,0.2213,0.2148,0.211,0.1981,0.2021,0.2056,0.1947,0.1668,0.1665,0.1662,0.166,0,0,0.2266,0.2244,0.2244,0.2188,0.2191,0.213,0.2123,0.2095,0.2111,0.2073,0.2051,0.22,0.2273,0.1936,0.1906,0.1754,0.1865,0.169,0.2403,0.2293,0.2323,0.2409,0.2292,0,0,0,0,0]},{"header":{"parameterUnit":"m.s-1","parameterCategory":2,"la1":30.2991,"la2":30.254,"lo1":-89.0895,"lo2":-89.0444,"dy":0.0017,"dx":0.0017,"nx":28,"ny":28,"refTime":"2023-11-12T03:00:00:Z","depth":"2","parameterNumber":3,"parameterNumberName":"V-component_of_CURRENTS"},"data":[0,0,0,0,0,0,0,0,0,0,0,0,0,0,0,0,0,0,0,0,0,0,0,0,0,0,0,0,0,0,0,0,0,0,0,0,0,0,0,0,0,0,0,0,0,0,0,0,0,0,0,0,0,0,0,0,0,0,0.0084,0.0084,0,0.003,0.0029,0.0028,-0.0012,-0.0012,-0.0012,-0.0012,-0.0081,-0.0083,-0.0084,0,0,0,0,0,0,0,0,0,0,0,0,0,0.0116,0.0115,0.0084,0.0084,0.0083,0.003,0.0029,0.0028,-0.0011,-0.0012,-0.0012,-0.0012,-0.0081,-0.0082,-0.0084,0,0,0,0,0,0,0,0,0,0,0,0,0,0.0085,0.0115,0.0084,0.0058,0.0055,0.003,0.0029,0.0028,-0.0011,-0.0012,-0.0012,-0.0012,-0.008,-0.0082,-0.0085,-0.0093,0,0,-0.0092,-0.0093,0,0,0,0,0,0,0,0,0.0087,0.0083,0.0062,0.006,0.0056,0.0017,0.0015,-0.0013,-0.0011,0.0013,-0.0012,-0.0013,-0.0049,-0.0054,-0.0065,-0.0096,-0.0099,-0.0092,-0.0094,-0.0095,-0.0095,0,0,0,0,0,0,0,0.0089,0.0085,0.0061,0.0062,0.0058,0.0035,0.0031,0.0009,-0.0017,0.001,0.0008,0.0004,-0.0051,-0.0062,-0.0067,-0.01,-0.0092,-0.0094,-0.0096,-0.0097,-0.0142,-0.0142,0,0,0,0,0,0,0.01,0.0088,0.0063,0.006,0.0072,0.0035,0.003,0.0029,-0.0016,-0.0023,0.0004,0.0002,-0.0058,-0.0064,-0.0069,-0.0072,-0.0095,-0.0097,-0.0098,-0.0142,-0.0142,-0.0142,0,0,0,0,0,0,0.0101,0.0099,0.0065,0.0073,0.0068,0.0036,0.0034,0.0028,0.0018,-0.0021,-0.0028,0.0001,-0.0058,-0.0066,-0.0083,-0.0076,-0.0098,-0.01,-0.0142,-0.0142,-0.0142,-0.0084,0,0,0,0,0,0,0.0102,0.0099,0.0101,0.0074,0.0068,0.0057,0.0034,0.0027,0.0016,0.0013,-0.0026,-0.0033,-0.0059,-0.008,-0.0086,-0.0079,-0.0102,-0.0143,-0.0142,-0.0142,-0.0087,-0.0082,-0.0078,0,0,0,0,0,0.0104,0.0112,0.0102,0.0099,0.0072,0.0057,0.0052,0.0027,0.0017,0.0016,-0.001,-0.0032,-0.0081,-0.0081,-0.0089,-0.0083,-0.0143,-0.0142,-0.0142,-0.0089,-0.0083,-0.0078,0,0,0,0,0,0,0.0125,0.0108,0.0096,0.0098,0.0081,0.0051,0.0049,0.0032,0.0011,0.0009,-0.0028,-0.0037,-0.0051,-0.0074,-0.0073,-0.0095,-0.0116,-0.0117,-0.0073,-0.0068,-0.0064,-0.0046,-0.0104,0,0,0,0,0,0.0132,0.0134,0.0111,0.0112,0.0107,0.0079,0.007,0.0055,0.0033,0.0023,-0.0005,-0.0033,-0.0054,-0.0066,-0.0091,-0.01,-0.0125,-0.0102,-0.0098,-0.0094,-0.0085,-0.0115,-0.0113,-0.014,-0.014,-0.014,0,0,0.014,0.0131,0.0131,0.0117,0.0101,0.0103,0.0072,0.0065,0.0066,0.0019,0.0011,-0.002,-0.0054,-0.0067,-0.0075,-0.0084,-0.01,-0.0093,-0.009,-0.0083,-0.0114,-0.0112,-0.0109,-0.0139,-0.0139,-0.0139,0,0,0.0163,0.0151,0.0161,0.0152,0.0137,0.0123,0.0125,0.0098,0.0086,0.0072,0.0041,0.0018,-0.0018,-0.0038,-0.0053,-0.004,-0.0078,-0.0051,-0.0014,-0.0043,-0.0041,-0.0039,-0.0068,-0.007,-0.0047,-0.0047,-0.0047,0,0.0173,0.0184,0.0162,0.017,0.0171,0.0137,0.0152,0.0135,0.0105,0.0102,0.0077,0.0028,-0.0003,-0.0012,-0.001,-0.003,-0.0054,-0.0029,-0.0037,-0.0036,-0.0035,-0.0065,-0.0068,-0.0044,-0.0045,-0.0045,-0.0045,0,0.0204,0.0212,0.0219,0.0222,0.0218,0.0225,0.0204,0.0196,0.0175,0.0156,0.0136,0.0088,0.0062,0.0044,0.002,0.0013,-0.0008,-0.0029,-0.0046,-0.0029,-0.0062,-0.0066,-0.004,-0.0041,-0.0042,-0.0043,0,0,0.0235,0.0241,0.0244,0.0258,0.0249,0.0254,0.0256,0.0253,0.0264,0.0218,0.0223,0.0173,0.0144,0.0125,0.0087,0.0059,0.0037,0.0022,0.0019,-0.0001,-0.0029,-0.0038,-0.0043,0.0014,0.0014,0.0013,-0.0054,0,0.0269,0.0302,0.0294,0.0329,0.0346,0.0324,0.0332,0.0322,0.0306,0.03,0.0246,0.0231,0.0176,0.0164,0.0128,0.0064,0.0031,0.0057,-0.0048,-0.0051,-0.0057,-0.0046,-0.0015,-0.0072,-0.0058,-0.0058,-0.0059,0,0.0306,0.0325,0.0365,0.0389,0.0395,0.0407,0.0424,0.043,0.0411,0.0396,0.0367,0.0322,0.0279,0.0225,0.0122,0.0141,0.0064,0.0005,0.0001,-0.0028,-0.0066,-0.0088,-0.0079,-0.0065,-0.0064,-0.0064,-0.0064,0,0.0348,0.0377,0.0416,0.0423,0.044,0.0453,0.0463,0.0459,0.0484,0.0461,0.0471,0.0399,0.0374,0.0268,0.0145,0.0132,0.0029,-0.0006,-0.009,-0.0092,-0.0096,-0.0097,-0.0082,-0.0082,-0.0082,-0.0082,-0.0081,0,0.0391,0.0423,0.0437,0.046,0.051,0.0501,0.0554,0.0549,0.0564,0.0606,0.0528,0.054,0.0383,0.0305,0.0176,0.0041,0.0049,-0.0079,-0.0107,-0.0075,-0.0074,-0.0092,-0.0092,-0.0084,-0.0084,-0.0083,-0.0083,0,0.0432,0.0442,0.0491,0.0518,0.0534,0.0569,0.0625,0.0663,0.0662,0.0714,0.0711,0.0651,0.0547,0.0386,0.0218,0.0095,-0.0044,-0.0098,-0.0049,-0.007,-0.0157,-0.0154,-0.0201,-0.0201,-0.0202,-0.0203,-0.0203,0,0.0456,0.0485,0.0539,0.0576,0.0592,0.0645,0.0689,0.0712,0.0765,0.0788,0.0823,0.0741,0.0707,0.046,0.0227,0.0004,-0.0037,-0.0128,-0.0151,-0.0144,-0.0168,-0.0163,-0.0159,-0.0138,-0.0138,-0.0138,-0.0138,0,0.0506,0.0523,0.0564,0.0637,0.0692,0.0763,0.0827,0.0888,0.0922,0.0963,0.1005,0.0979,0.0755,0.0545,0.0233,0.0079,-0.0091,-0.0134,-0.0137,-0.0108,-0.009,-0.0112,-0.0109,-0.0138,-0.0138,-0.0138,-0.0138,-0.0138,0.0544,0.0579,0.0633,0.0704,0.0775,0.0867,0.0933,0.1011,0.1105,0.1167,0.1139,0.1096,0.0863,0.0473,0.0211,-0.0082,-0.0073,-0.0184,-0.0182,-0.0181,-0.0157,-0.014,-0.0193,-0.0194,-0.0194,-0.0194,-0.0194,0,0.0589,0.0628,0.0696,0.0783,0.0864,0.0894,0.1019,0.1085,0.1198,0.1243,0.127,0.1039,0.081,0.0523,0.0105,-0.0137,-0.0159,-0.0226,-0.0195,-0.0193,-0.0191,-0.0167,-0.0207,-0.0208,-0.0209,-0.0209,0,0,0.0615,0.0682,0.0714,0.0844,0.0907,0.1017,0.1091,0.119,0.1249,0.1296,0.1267,0.1224,0.089,0.0586,0.0265,0.0023,-0.0037,-0.003,0.0009,0.0087,0.0091,-0.0135,-0.0091,0,0,0,0,0]}],[{"header":{"parameterUnit":"m.s-1","parameterCategory":2,"la1":30.2991,"la2":30.254,"lo1":-89.0895,"lo2":-89.0444,"dy":0.0017,"dx":0.0017,"nx":28,"ny":28,"refTime":"2023-11-12T03:00:00:Z","depth":"4","parameterNumber":2,"parameterNumberName":"U-component_of_CURRENTS"},"data":[0,0,0,0,0,0,0,0,0,0,0,0,0,0,0,0,0,0,0,0,0,0,0,0,0,0,0,0,0,0,0,0,0,0,0,0,0,0,0,0,0,0,0,0,0,0,0,0,0,0,0,0,0,0,0,0,0,0,0.1656,0.1656,0,0.1706,0.1706,0.1707,0.1757,0.1758,0.1759,0.176,0.1826,0.1827,0.1828,0,0,0,0,0,0,0,0,0,0,0,0,0,0.1596,0.1597,0.1656,0.1656,0.1657,0.1706,0.1706,0.1707,0.1757,0.1758,0.1759,0.176,0.1826,0.1827,0.1829,0,0,0,0,0,0,0,0,0,0,0,0,0,0.1631,0.1597,0.1656,0.1689,0.1693,0.1706,0.1706,0.1707,0.1757,0.1758,0.1759,0.176,0.1826,0.1827,0.1829,0.1814,0,0,0.1833,0.1834,0,0,0,0,0,0,0,0,0.1629,0.1632,0.1684,0.1687,0.1691,0.1728,0.171,0.1744,0.1757,0.1731,0.176,0.1761,0.1795,0.1799,0.1804,0.1817,0.182,0.1834,0.1834,0.1835,0.1836,0,0,0,0,0,0,0,0.1626,0.1631,0.1674,0.1684,0.1689,0.17,0.1706,0.1717,0.1755,0.1733,0.1738,0.1745,0.1797,0.1802,0.1806,0.1821,0.1833,0.1835,0.1836,0.1836,0.1936,0.1937,0,0,0,0,0,0,0.1622,0.1628,0.1673,0.1676,0.1664,0.17,0.1706,0.1714,0.1754,0.1762,0.1744,0.1747,0.1799,0.1804,0.1808,0.1891,0.1835,0.1837,0.1837,0.1934,0.1936,0.1938,0,0,0,0,0,0,0.162,0.1625,0.1671,0.1654,0.1661,0.17,0.1707,0.1714,0.1757,0.1763,0.1771,0.1785,0.18,0.1806,0.1853,0.1891,0.1837,0.1839,0.1932,0.1935,0.1937,0.1994,0,0,0,0,0,0,0.1618,0.1624,0.1646,0.1654,0.1662,0.1704,0.1706,0.1714,0.1758,0.1764,0.1799,0.1805,0.1801,0.1851,0.1855,0.1892,0.184,0.193,0.1933,0.1936,0.199,0.1998,0.2006,0,0,0,0,0,0.1616,0.1634,0.1646,0.1653,0.1684,0.1705,0.1711,0.174,0.176,0.1784,0.1811,0.1806,0.1874,0.1854,0.1858,0.1896,0.1928,0.1932,0.1936,0.1987,0.1997,0.2005,0,0,0,0,0,0,0.1621,0.1641,0.1655,0.168,0.1704,0.1715,0.1745,0.1761,0.1801,0.182,0.1824,0.1831,0.1887,0.1884,0.1861,0.1935,0.1902,0.1907,0.1939,0.1949,0.1956,0.196,0.1841,0,0,0,0,0,0.163,0.1653,0.167,0.1696,0.1711,0.1735,0.1756,0.1776,0.1802,0.1823,0.1846,0.1873,0.1898,0.1919,0.1938,0.1975,0.1976,0.2004,0.2012,0.2018,0.2025,0.2056,0.2067,0.195,0.195,0.195,0,0,0.164,0.1656,0.167,0.17,0.1724,0.1747,0.1752,0.1794,0.1824,0.1822,0.1883,0.1903,0.1915,0.196,0.1985,0.1968,0.2054,0.2023,0.2029,0.2032,0.2061,0.2072,0.2082,0.1953,0.1953,0.1952,0,0,0.1658,0.1687,0.1709,0.1732,0.1773,0.1784,0.1805,0.1838,0.187,0.1918,0.193,0.1974,0.2011,0.2027,0.2038,0.2099,0.2094,0.2113,0.2156,0.2186,0.2196,0.2204,0.2225,0.2235,0.2117,0.2117,0.2117,0,0.1673,0.1696,0.1721,0.1746,0.1771,0.1805,0.1833,0.1864,0.1912,0.1941,0.1951,0.2025,0.204,0.2089,0.2117,0.2117,0.2132,0.2117,0.2196,0.2204,0.2211,0.2231,0.2241,0.212,0.212,0.212,0.2119,0,0.1692,0.1727,0.1745,0.1786,0.1816,0.185,0.1888,0.1934,0.1976,0.2002,0.2076,0.21,0.2143,0.216,0.2159,0.2226,0.2219,0.2201,0.2169,0.2227,0.2244,0.2253,0.2125,0.2124,0.2123,0.2122,0,0,0.168,0.1745,0.1756,0.1783,0.1843,0.1865,0.1926,0.1979,0.2029,0.2083,0.2143,0.2196,0.2222,0.2236,0.2249,0.2281,0.2351,0.2274,0.2274,0.229,0.2423,0.2273,0.2268,0.2352,0.2354,0.2355,0.2415,0,0.1691,0.1741,0.1772,0.1828,0.1856,0.1909,0.196,0.2019,0.2077,0.2144,0.2187,0.2251,0.2246,0.2286,0.2317,0.2347,0.2379,0.2336,0.237,0.2371,0.2225,0.2275,0.2361,0.2422,0.2424,0.2426,0.2427,0,0.1689,0.1726,0.1781,0.1852,0.1871,0.1916,0.2007,0.2058,0.2152,0.2203,0.2272,0.2309,0.238,0.2364,0.2439,0.2417,0.2431,0.2442,0.2444,0.2288,0.2237,0.2352,0.2444,0.2442,0.2441,0.244,0.2439,0,0.1651,0.1727,0.1773,0.1798,0.1884,0.1933,0.1989,0.2084,0.2139,0.2254,0.2309,0.2384,0.2442,0.2473,0.2504,0.2487,0.2571,0.2541,0.2415,0.2405,0.2497,0.2487,0.2589,0.2589,0.2589,0.2588,0.2588,0,0.1625,0.1666,0.1769,0.1792,0.1857,0.193,0.2013,0.2082,0.2191,0.2247,0.2344,0.2391,0.2478,0.2527,0.2534,0.2501,0.2595,0.243,0.2411,0.2521,0.2513,0.2504,0.2493,0.2591,0.259,0.259,0.2589,0,0.1565,0.1632,0.169,0.18,0.1839,0.189,0.2015,0.2068,0.219,0.227,0.2312,0.2428,0.2486,0.2544,0.2603,0.2527,0.2519,0.2484,0.2611,0.2597,0.2327,0.2319,0.2341,0.2336,0.2332,0.2329,0.2326,0,0.1532,0.156,0.1683,0.1722,0.1778,0.1869,0.1923,0.2053,0.2104,0.2259,0.2277,0.2392,0.2446,0.2407,0.2481,0.2485,0.2455,0.2433,0.2363,0.2322,0.2303,0.2301,0.2299,0.2319,0.2318,0.2317,0.2316,0,0.147,0.1532,0.1581,0.1662,0.173,0.1788,0.188,0.1903,0.2037,0.2166,0.2187,0.2212,0.2273,0.2303,0.2332,0.2325,0.2433,0.2389,0.2397,0.2331,0.2296,0.228,0.2283,0.2302,0.2304,0.2305,0.2306,0,0.143,0.1448,0.1525,0.158,0.1658,0.1678,0.174,0.179,0.1851,0.2013,0.2012,0.2127,0.2241,0.2221,0.2241,0.2231,0.2191,0.2107,0.2128,0.2145,0.2051,0.1976,0.1873,0,0,0,0,0,0.1379,0.1386,0.1435,0.1477,0.1547,0.1591,0.1692,0.1756,0.188,0.1843,0.1922,0.1961,0.1986,0.205,0.2001,0.2164,0.2209,0.2097,0.2126,0.2224,0.224,0.2147,0,0,0,0,0,0,0.1342,0.1385,0.1396,0.1378,0.139,0.1445,0.1505,0.1593,0.158,0.1715,0.1742,0.1842,0.1904,0.1994,0.1962,0.1982,0.1959,0.2175,0.2169,0.2214,0.2229,0.2242,0.2153,0,0,0,0,0]},{"header":{"parameterUnit":"m.s-1","parameterCategory":2,"la1":30.2991,"la2":30.254,"lo1":-89.0895,"lo2":-89.0444,"dy":0.0017,"dx":0.0017,"nx":28,"ny":28,"refTime":"2023-11-12T03:00:00:Z","depth":"4","parameterNumber":3,"parameterNumberName":"V-component_of_CURRENTS"},"data":[0,0,0,0,0,0,0,0,0,0,0,0,0,0,0,0,0,0,0,0,0,0,0,0,0,0,0,0,0,0,0,0,0,0,0,0,0,0,0,0,0,0,0,0,0,0,0,0,0,0,0,0,0,0,0,0,0,0,0.0166,0.0165,0,0.0132,0.0132,0.0131,0.0109,0.0109,0.0109,0.0109,0.0063,0.0062,0.0061,0,0,0,0,0,0,0,0,0,0,0,0,0,0.0182,0.0182,0.0166,0.0165,0.0165,0.0132,0.0131,0.0131,0.0109,0.0109,0.0109,0.0109,0.0063,0.0062,0.0061,0,0,0,0,0,0,0,0,0,0,0,0,0,0.0164,0.0182,0.0166,0.015,0.0149,0.0132,0.0131,0.0131,0.0109,0.0109,0.0109,0.0109,0.0064,0.0062,0.0061,0.0053,0,0,0.0055,0.0055,0,0,0,0,0,0,0,0,0.0165,0.0163,0.0153,0.0151,0.0149,0.0125,0.012,0.0104,0.0109,0.0124,0.0109,0.0109,0.0083,0.008,0.0073,0.0051,0.0049,0.0055,0.0054,0.0053,0.0053,0,0,0,0,0,0,0,0.0166,0.0164,0.0152,0.0153,0.015,0.0135,0.0133,0.0117,0.0104,0.0122,0.0121,0.0118,0.0082,0.0075,0.0072,0.0048,0.0055,0.0054,0.0053,0.0052,0.0018,0.0018,0,0,0,0,0,0,0.0173,0.0166,0.0153,0.0151,0.0158,0.0135,0.0132,0.0133,0.0104,0.01,0.0118,0.0117,0.0078,0.0074,0.007,0.007,0.0053,0.0052,0.0051,0.0018,0.0018,0.0018,0,0,0,0,0,0,0.0174,0.0172,0.0154,0.0158,0.0154,0.0135,0.0136,0.0132,0.0128,0.0101,0.0097,0.0118,0.0078,0.0073,0.0061,0.0068,0.0051,0.005,0.0018,0.0018,0.0018,0.0063,0,0,0,0,0,0,0.0174,0.0173,0.0177,0.0158,0.0154,0.0149,0.0136,0.0131,0.0127,0.0125,0.01,0.0095,0.0077,0.0064,0.006,0.0065,0.0048,0.0018,0.0018,0.0018,0.0061,0.0065,0.0068,0,0,0,0,0,0.0175,0.0183,0.0177,0.0176,0.016,0.015,0.0146,0.0132,0.0127,0.0127,0.0111,0.0096,0.0062,0.0063,0.0058,0.0063,0.0017,0.0018,0.0018,0.006,0.0064,0.0067,0,0,0,0,0,0,0.0191,0.018,0.0174,0.0178,0.0167,0.0146,0.0147,0.0136,0.0124,0.0124,0.0099,0.0093,0.0085,0.0067,0.0069,0.0053,0.0037,0.0036,0.007,0.0074,0.0077,0.0091,0.0047,0,0,0,0,0,0.0197,0.0201,0.0185,0.0188,0.0185,0.0167,0.0162,0.0153,0.0138,0.0133,0.0114,0.0096,0.0081,0.0073,0.0056,0.0049,0.0027,0.0048,0.0051,0.0053,0.0061,0.0033,0.0035,0.0019,0.0019,0.0019,0,0,0.0203,0.0199,0.02,0.0192,0.0183,0.0185,0.0164,0.0161,0.0163,0.013,0.0127,0.0106,0.0081,0.0073,0.0068,0.006,0.0046,0.0054,0.0057,0.0062,0.0033,0.0035,0.0036,0.0019,0.0019,0.0019,0,0,0.022,0.0216,0.0225,0.0219,0.021,0.0201,0.0203,0.0185,0.0178,0.0171,0.0149,0.0134,0.0109,0.0094,0.0083,0.0092,0.0062,0.0085,0.0113,0.0086,0.0087,0.0088,0.0061,0.0059,0.0087,0.0087,0.0087,0,0.0229,0.0239,0.0225,0.0232,0.0234,0.0212,0.0224,0.0213,0.0194,0.0193,0.0176,0.0142,0.0119,0.0113,0.0116,0.01,0.0079,0.0103,0.0091,0.0091,0.0091,0.0063,0.006,0.0089,0.0089,0.0089,0.0089,0,0.0251,0.0261,0.0266,0.0271,0.027,0.0277,0.0263,0.026,0.0247,0.0235,0.0222,0.0186,0.0168,0.0155,0.0139,0.0131,0.0114,0.0098,0.0084,0.0096,0.0065,0.0061,0.0092,0.0092,0.0091,0.009,0,0,0.027,0.0281,0.0284,0.0297,0.0294,0.0298,0.0303,0.0304,0.0314,0.0282,0.0287,0.0251,0.0231,0.0217,0.0189,0.0164,0.0142,0.0136,0.0134,0.0114,0.0082,0.007,0.0064,0.0124,0.0123,0.0123,0.006,0,0.0294,0.0321,0.0319,0.0348,0.0362,0.0351,0.036,0.0356,0.0347,0.0345,0.0304,0.0296,0.0255,0.0249,0.0217,0.0165,0.0135,0.0161,0.0069,0.0067,0.0059,0.0061,0.0122,0.0057,0.0056,0.0055,0.0055,0,0.0317,0.0334,0.0368,0.0393,0.0399,0.0413,0.0432,0.044,0.0429,0.042,0.0399,0.0366,0.0331,0.0291,0.0203,0.0222,0.0159,0.011,0.0106,0.0078,0.0048,0.0042,0.0048,0.0048,0.0049,0.0049,0.005,0,0.0341,0.037,0.0403,0.041,0.0432,0.0448,0.0461,0.0464,0.0486,0.0473,0.048,0.0424,0.0403,0.0317,0.0215,0.0209,0.0112,0.009,0.0017,0.0015,0.0025,0.0024,0.0025,0.0025,0.0025,0.0025,0.0025,0,0.0366,0.0393,0.0418,0.0437,0.0483,0.0484,0.0532,0.0533,0.055,0.0581,0.0526,0.0527,0.0408,0.0338,0.0235,0.0118,0.0124,0.0024,-0.0001,0.0044,0.0047,0.0022,0.0022,0.0023,0.0023,0.0024,0.0024,0,0.0384,0.0401,0.0444,0.0479,0.0498,0.0531,0.0588,0.062,0.0626,0.0663,0.0663,0.0608,0.0513,0.0387,0.0246,0.0153,0.0036,-0.0009,0.0053,0.0033,-0.005,-0.0047,-0.0096,-0.0097,-0.0098,-0.0098,-0.0099,0,0.0394,0.0419,0.0478,0.0512,0.0533,0.0587,0.0628,0.0658,0.0696,0.0711,0.0729,0.0657,0.0598,0.0399,0.0256,0.0057,0.0023,-0.0045,-0.0054,-0.0042,-0.0062,-0.0057,-0.0053,-0.01,-0.01,-0.01,-0.0101,0,0.0416,0.044,0.0477,0.0547,0.06,0.0664,0.0722,0.0757,0.0791,0.0799,0.0784,0.0679,0.0572,0.0407,0.0252,0.0108,-0.0005,-0.0054,-0.0053,-0.0063,-0.0048,-0.0066,-0.006,-0.0103,-0.0103,-0.0103,-0.0103,0,0.0436,0.0463,0.0516,0.0576,0.0649,0.0715,0.0747,0.0787,0.0827,0.0836,0.083,0.0711,0.0646,0.0434,0.0293,0.0148,0.0103,0.0042,0.0036,0.0037,0.0089,0.0128,0.0109,0,0,0,0,0,0.0449,0.0482,0.054,0.0609,0.0679,0.0723,0.08,0.0825,0.0859,0.0855,0.0845,0.0744,0.0538,0.0456,0.0309,0.0263,0.0068,0.0083,-0.0007,-0.0118,-0.0115,-0.0079,0,0,0,0,0,0,0.046,0.0514,0.0539,0.0626,0.0674,0.0758,0.0809,0.0832,0.0832,0.084,0.0741,0.0691,0.0499,0.0622,0.0302,0.0259,0.0177,-0.0008,-0.0012,-0.012,-0.0117,-0.0115,-0.0077,0,0,0,0,0]}]]